Location: Caltech
(34.1382°N, 118.1253°W)
Time: 13:35:15
(UTC-07:00)

Cosmos 1939 Rocket - Visible Passes

Search period start: 25 July 2014 00:00
Search period end: 04 August 2014 00:00
Orbit: 545 x 591 km, 97.7° (Epoch: 25 July)

Date Brightness Start Highest point End Pass type
(mag) Time Alt. Az. Time Alt. Az. Time Alt. Az.
25 Jul 3.1 21:19:44 28° SE 21:21:30 49° ENE 21:25:23 10° N visible
26 Jul 3.1 21:21:03 29° SE 21:22:46 51° ENE 21:26:40 10° N visible
27 Jul 3.0 21:22:23 31° SE 21:24:01 53° ENE 21:27:57 10° N visible
28 Jul 3.0 21:23:42 32° SE 21:25:17 56° ENE 21:29:14 10° N visible
29 Jul 2.9 21:25:02 34° SE 21:26:32 58° ENE 21:30:31 10° N visible
30 Jul 2.9 21:26:21 36° SE 21:27:47 60° ENE 21:31:47 10° N visible
31 Jul 2.9 21:27:41 38° SE 21:29:03 63° ENE 21:33:04 10° N visible
01 Aug 2.8 21:29:00 40° SE 21:30:18 66° ENE 21:34:20 10° N visible
02 Aug 2.8 21:30:20 42° SE 21:31:33 68° ENE 21:35:36 10° N visible
03 Aug 2.8 21:31:40 45° SE 21:32:48 71° ENE 21:36:52 10° N visible
